QPF
0.00 0.00 0.02 0.02 0.02 0.03 0.04 0.01 0.00 0.00 0.00 0.01 0.00 0.00 0.00 0.00 0.00 0.00 0.00 0.00 0.00 0.00 0.00 0.00 0.00 0.00 0.00 0.00 0.00 0.00 0.00 0.00 0.00 0.00 0.00 0.00 0.00 0.00 0.00 0.00 0.00 0.00 0.00 0.00
0.00 0.00 0.02 0.02 0.01 0.02 0.01 0.00 0.01 0.02 0.00 0.00 0.00 0.00 0.00 0.00 0.00 0.00 0.00 0.00 0.00 0.00 0.00 0.00 0.00 0.00 0.00 0.00 0.00 0.00 0.00 0.00 0.00 0.00 0.00 0.00 0.00 0.00 0.00 0.00 0.00 0.00 0.00 0.00
0.00 0.01 0.02 0.01 0.01 0.02 0.03 0.01 0.01 0.04 0.03 0.00 0.00 0.00 0.00 0.00 0.00 0.00 0.00 0.00 0.00 0.00 0.00 0.00 0.00 0.00 0.00 0.00 0.00 0.00 0.00 0.00 0.00 0.00 0.00 0.00 0.00 0.00 0.00 0.00 0.00 0.00 0.00 0.00
0.01 0.01 0.02 0.01 0.01 0.02 0.03 0.01 0.01 0.01 0.01 0.00 0.00 0.00 0.00 0.00 0.00 0.00 0.00 0.00 0.00 0.00 0.00 0.00 0.00 0.00 0.00 0.00 0.00 0.00 0.00 0.00 0.00 0.00 0.00 0.00 0.00 0.00 0.00 0.00 0.00 0.00 0.00 0.00
0.01 0.01 0.02 0.01 0.00 0.02 0.02 0.00 0.00 0.01 0.00 0.00 0.00 0.00 0.00 0.00 0.00 0.00 0.00 0.00 0.00 0.00 0.00 0.00 0.00 0.00 0.00 0.00 0.00 0.00 0.00 0.00 0.00 0.00 0.00 0.00 0.00 0.00 0.00 0.00 0.00 0.00 0.00 0.00
0.01 0.01 0.01 0.01 0.00 0.01 0.00 0.00 0.00 0.01 0.00 0.00 0.00 0.00 0.00 0.00 0.00 0.00 0.00 0.00 0.00 0.00 0.00 0.00 0.00 0.00 0.00 0.00 0.00 0.00 0.00 0.00 0.00 0.00 0.00 0.00 0.00 0.00 0.00 0.00 0.00 0.00 0.00 0.00
0.02 0.02 0.01 0.00 0.00 0.00 0.01 0.00 0.00 0.02 0.01 0.01 0.00 0.00 0.00 0.00 0.00 0.00 0.00 0.00 0.00 0.00 0.00 0.00 0.00 0.00 0.00 0.00 0.00 0.00 0.00 0.00 0.00 0.00 0.00 0.00 0.00 0.00 0.00 0.00 0.00 0.00 0.00 0.00
0.02 0.02 0.00 0.00 0.00 0.00 0.00 0.00 0.01 0.02 0.02 0.01 0.00 0.00 0.00 0.00 0.00 0.00 0.00 0.00 0.00 0.00 0.00 0.00 0.00 0.00 0.00 0.00 0.00 0.00 0.00 0.00 0.00 0.00 0.00 0.00 0.00 0.00 0.00 0.00 0.00 0.00 0.00 0.00
0.01 0.01 0.00 0.00 0.00 0.00 0.00 0.01 0.00 0.02 0.02 0.01 0.00 0.00 0.00 0.00 0.00 0.00 0.00 0.00 0.00 0.00 0.00 0.00 0.01 0.01 0.00 0.00 0.00 0.00 0.00 0.00 0.00 0.00 0.00 0.00 0.00 0.00 0.00 0.00 0.00 0.00 0.00 0.00
0.01 0.00 0.00 0.00 0.00 0.01 0.00 0.00 0.02 0.02 0.01 0.02 0.01 0.00 0.00 0.00 0.00 0.00 0.00 0.00 0.00 0.00 0.00 0.00 0.00 0.01 0.00 0.00 0.00 0.00 0.00 0.00 0.00 0.00 0.00 0.00 0.00 0.00 0.00 0.00 0.00 0.00 0.00 0.00
0.01 0.00 0.00 0.01 0.01 0.02 0.01 0.00 0.01 0.03 0.01 0.00 0.01 0.02 0.00 0.00 0.00 0.00 0.00 0.00 0.00 0.00 0.00 0.00 0.01 0.00 0.00 0.00 0.00 0.00 0.00 0.00 0.00 0.00 0.00 0.00 0.00 0.00 0.00 0.00 0.00 0.00 0.00 0.00
0.00 0.00 0.01 0.02 0.02 0.03 0.01 0.01 0.02 0.02 0.01 0.01 0.00 0.01 0.01 0.00 0.00 0.00 0.00 0.00 0.00 0.00 0.00 0.00 0.01 0.00 0.00 0.00 0.00 0.00 0.00 0.00 0.00 0.00 0.00 0.00 0.00 0.00 0.00 0.00 0.00 0.00 0.00 0.00
0.00 0.00 0.02 0.03 0.02 0.02 0.01 0.01 0.04 0.03 0.01 0.01 0.00 0.01 0.02 0.00 0.00 0.00 0.00 0.00 0.00 0.00 0.00 0.01 0.01 0.01 0.00 0.00 0.00 0.00 0.00 0.00 0.00 0.00 0.00 0.00 0.00 0.00 0.00 0.00 0.00 0.00 0.00 0.00
0.00 0.01 0.02 0.02 0.02 0.02 0.01 0.01 0.03 0.02 0.01 0.00 0.00 0.01 0.02 0.01 0.01 0.00 0.00 0.00 0.01 0.03 0.02 0.03 0.02 0.01 0.01 0.00 0.00 0.00 0.00 0.00 0.00 0.00 0.00 0.00 0.00 0.00 0.00 0.00 0.00 0.00 0.00 0.00
0.00 0.01 0.02 0.01 0.02 0.02 0.01 0.01 0.01 0.01 0.01 0.00 0.00 0.00 0.01 0.02 0.04 0.03 0.01 0.00 0.00 0.02 0.04 0.03 0.01 0.01 0.01 0.00 0.00 0.00 0.00 0.00 0.00 0.00 0.00 0.00 0.00 0.00 0.00 0.00 0.00 0.00 0.00 0.00
0.00 0.00 0.00 0.00 0.01 0.02 0.03 0.03 0.01 0.01 0.02 0.00 0.00 0.00 0.00 0.03 0.08 0.07 0.05 0.01 0.00 0.02 0.02 0.02 0.01 0.00 0.00 0.00 0.00 0.00 0.00 0.00 0.00 0.00 0.00 0.00 0.00 0.00 0.00 0.00 0.00 0.00 0.00 0.00
0.00 0.00 0.01 0.01 0.02 0.01 0.02 0.02 0.01 0.00 0.01 0.02 0.00 0.00 0.00 0.03 0.08 0.08 0.03 0.01 0.00 0.01 0.01 0.01 0.00 0.00 0.00 0.00 0.00 0.00 0.00 0.00 0.00 0.00 0.00 0.00 0.00 0.00 0.00 0.00 0.00 0.00 0.00 0.00
0.02 0.03 0.02 0.03 0.02 0.01 0.01 0.01 0.03 0.00 0.01 0.02 0.00 0.00 0.01 0.03 0.06 0.06 0.04 0.02 0.01 0.01 0.01 0.00 0.00 0.00 0.00 0.00 0.00 0.00 0.00 0.00 0.00 0.00 0.00 0.00 0.00 0.00 0.00 0.00 0.00 0.00 0.00 0.00
0.02 0.02 0.03 0.03 0.02 0.01 0.00 0.03 0.04 0.01 0.01 0.01 0.00 0.00 0.01 0.00 0.04 0.06 0.06 0.06 0.05 0.02 0.01 0.01 0.00 0.00 0.00 0.00 0.00 0.00 0.00 0.00 0.00 0.00 0.00 0.00 0.00 0.00 0.00 0.00 0.00 0.00 0.00 0.00
0.01 0.02 0.02 0.02 0.00 0.02 0.01 0.02 0.02 0.01 0.02 0.01 0.00 0.00 0.00 0.00 0.00 0.01 0.04 0.03 0.03 0.01 0.00 0.01 0.01 0.00 0.00 0.00 0.00 0.00 0.00 0.00 0.00 0.00 0.00 0.00 0.00 0.00 0.00 0.00 0.00 0.00 0.00 0.00
0.01 0.00 0.01 0.02 0.04 0.04 0.01 0.00 0.00 0.00 0.00 0.00 0.00 0.00 0.00 0.00 0.00 0.00 0.00 0.00 0.00 0.00 0.00 0.00 0.00 0.00 0.00 0.00 0.00 0.00 0.00 0.00 0.00 0.00 0.00 0.00 0.00 0.00 0.00 0.00 0.00 0.00 0.00 0.00
0.00 0.02 0.03 0.02 0.03 0.01 0.00 0.00 0.00 0.00 0.00 0.00 0.00 0.00 0.00 0.00 0.00 0.00 0.00 0.00 0.00 0.00 0.00 0.00 0.00 0.00 0.00 0.00 0.00 0.00 0.00 0.00 0.00 0.00 0.00 0.00 0.00 0.00 0.00 0.00 0.00 0.00 0.00 0.00
0.01 0.01 0.00 0.00 0.00 0.00 0.00 0.00 0.00 0.00 0.00 0.00 0.00 0.00 0.00 0.00 0.00 0.00 0.00 0.00 0.00 0.00 0.00 0.00 0.00 0.00 0.00 0.00 0.00 0.00 0.00 0.00 0.00 0.00 0.00 0.00 0.00 0.00 0.00 0.00 0.00 0.00 0.00 0.00
0.00 0.00 0.00 0.00 0.00 0.00 0.00 0.00 0.00 0.00 0.00 0.00 0.00 0.00 0.00 0.00 0.00 0.00 0.00 0.00 0.00 0.00 0.00 0.00 0.00 0.00 0.00 0.00 0.00 0.00 0.00 0.00 0.00 0.00 0.00 0.00 0.00 0.00 0.00 0.00 0.00 0.00 0.00 0.00
0.00 0.00 0.00 0.00 0.00 0.00 0.00 0.00 0.00 0.00 0.00 0.00 0.00 0.00 0.00 0.00 0.00 0.00 0.00 0.00 0.00 0.00 0.00 0.00 0.00 0.00 0.00 0.00 0.00 0.00 0.00 0.00 0.00 0.00 0.00 0.00 0.00 0.00 0.00 0.00 0.00 0.00 0.00 0.00
0.00 0.00 0.00 0.00 0.00 0.00 0.00 0.00 0.00 0.00 0.00 0.00 0.00 0.00 0.00 0.00 0.00 0.00 0.00 0.00 0.00 0.00 0.00 0.00 0.00 0.00 0.00 0.00 0.00 0.00 0.00 0.00 0.00 0.00 0.00 0.00 0.00 0.00 0.00 0.00 0.00 0.00 0.00 0.00
0.00 0.00 0.00 0.00 0.00 0.00 0.00 0.00 0.00 0.00 0.00 0.00 0.00 0.00 0.00 0.00 0.00 0.00 0.00 0.00 0.00 0.00 0.00 0.00 0.00 0.00 0.00 0.00 0.00 0.00 0.00 0.00 0.00 0.00 0.00 0.00 0.00 0.00 0.00 0.00 0.00 0.00 0.00 0.00
MSLP
1003.90 1005.35 1006.59 1007.91 1009.12 1010.49 1012.06 1012.45 1012.80 1011.62 1012.65 1013.59 1012.32 1011.21 1011.03 1010.51 1009.33 1009.01 1008.81 1008.46 1008.13 1007.48 1007.13 1007.37 1007.70 1007.63 1007.33 1007.16 1007.89 1009.25 1009.49 1010.04 1010.86 1010.26 1009.67 1009.74 1010.17 1010.93 1011.97 1013.77 1015.07 1015.47 1014.80 1012.23
1002.19 1003.94 1005.28 1006.59 1007.72 1008.81 1010.83 1011.15 1011.36 1011.39 1010.91 1011.48 1010.49 1010.58 1010.47 1010.29 1009.52 1009.07 1008.96 1008.63 1008.08 1007.65 1007.17 1007.32 1007.19 1007.04 1006.64 1006.97 1007.74 1008.35 1009.33 1010.09 1010.93 1010.74 1010.49 1010.22 1010.34 1010.70 1011.46 1012.65 1013.77 1014.63 1014.56 1012.13
1000.52 1002.48 1004.05 1005.44 1007.18 1008.08 1009.70 1010.42 1010.71 1010.19 1010.50 1008.70 1009.32 1009.61 1009.39 1009.76 1009.36 1009.27 1008.95 1008.69 1008.31 1008.07 1007.51 1006.85 1006.89 1006.80 1006.76 1006.96 1007.36 1007.71 1008.39 1009.49 1010.17 1010.36 1009.97 1009.87 1010.50 1010.51 1011.11 1011.90 1013.42 1013.55 1013.12 1011.73
999.02 1001.05 1002.88 1004.30 1005.89 1007.37 1008.76 1008.86 1008.27 1007.08 1007.64 1008.52 1008.01 1008.63 1008.43 1008.82 1008.88 1008.82 1008.81 1008.75 1008.42 1008.32 1008.11 1007.25 1006.95 1006.78 1006.98 1007.33 1007.61 1008.18 1008.51 1009.61 1010.04 1009.79 1009.64 1009.71 1009.82 1010.22 1010.64 1011.09 1011.51 1012.09 1011.70 1011.70
997.56 999.68 1001.65 1003.22 1004.69 1006.70 1008.01 1007.39 1007.06 1006.64 1006.46 1007.40 1008.58 1008.05 1007.45 1007.68 1008.57 1008.26 1008.28 1008.37 1008.02 1008.17 1008.18 1007.33 1007.05 1007.15 1007.31 1007.18 1007.99 1008.41 1008.94 1009.79 1010.26 1010.64 1010.36 1010.14 1010.05 1009.97 1010.31 1010.60 1010.89 1011.06 1011.04 1011.07
996.40 998.62 1000.59 1002.32 1003.83 1005.96 1006.07 1006.81 1006.39 1006.29 1006.06 1006.83 1007.60 1005.48 1006.27 1007.24 1008.24 1007.98 1007.73 1007.81 1007.97 1007.77 1007.14 1007.08 1006.82 1006.99 1007.19 1007.49 1008.10 1008.21 1009.21 1010.04 1011.34 1011.86 1011.49 1011.08 1010.84 1009.59 1009.60 1009.75 1009.79 1010.02 1010.54 1010.28
995.62 997.79 999.64 1001.34 1002.43 1003.47 1004.45 1005.76 1006.16 1005.89 1005.39 1005.73 1004.55 1005.77 1006.41 1006.69 1006.81 1007.47 1007.50 1007.53 1007.82 1007.52 1007.15 1007.24 1007.15 1007.33 1007.32 1007.51 1007.91 1008.62 1009.31 1010.46 1011.78 1012.96 1012.93 1011.84 1009.68 1009.06 1008.89 1009.17 1009.25 1009.52 1009.96 1010.19
995.20 997.01 998.89 1000.56 1002.20 1003.80 1005.10 1005.64 1006.23 1005.91 1005.54 1005.15 1005.11 1005.65 1006.10 1007.06 1007.40 1007.50 1007.45 1007.15 1007.25 1007.59 1008.04 1008.49 1008.13 1008.44 1008.22 1008.36 1008.46 1008.60 1009.24 1010.41 1012.68 1013.53 1013.43 1011.59 1009.95 1009.16 1008.96 1008.92 1008.89 1009.13 1009.97 1010.76
994.93 996.88 998.70 1000.58 1002.22 1003.53 1005.17 1005.64 1006.25 1006.24 1005.56 1004.49 1004.80 1005.25 1005.50 1006.19 1006.73 1007.81 1007.25 1007.59 1007.48 1008.33 1009.13 1009.86 1009.56 1009.47 1008.58 1009.04 1009.12 1009.24 1009.53 1010.40 1011.80 1013.64 1013.38 1011.80 1009.65 1008.18 1007.99 1008.32 1008.86 1009.09 1009.69 1010.94
995.12 996.95 998.82 1000.45 1002.07 1003.50 1005.01 1005.61 1006.21 1006.85 1005.80 1004.52 1004.30 1004.11 1004.65 1005.79 1006.45 1006.89 1007.49 1007.60 1008.10 1008.37 1009.69 1010.21 1010.05 1010.39 1009.17 1008.97 1009.25 1009.83 1010.83 1011.82 1012.75 1013.49 1012.83 1010.96 1008.67 1008.19 1008.37 1008.95 1008.53 1008.37 1009.32 1010.61
995.47 997.34 999.16 1000.71 1002.12 1003.23 1004.46 1005.50 1006.56 1007.16 1006.33 1005.22 1004.43 1004.58 1004.26 1004.96 1005.21 1005.97 1006.63 1008.08 1007.77 1008.70 1009.30 1009.98 1009.94 1010.28 1009.10 1008.89 1008.61 1008.74 1009.61 1011.17 1012.42 1012.70 1012.12 1010.23 1007.98 1008.60 1008.51 1007.66 1007.71 1008.35 1009.43 1010.41
996.29 997.95 999.54 1000.99 1002.26 1003.37 1004.67 1005.81 1006.58 1007.35 1006.77 1005.70 1005.19 1004.80 1004.60 1004.52 1004.39 1005.36 1005.66 1005.53 1005.74 1006.49 1007.65 1008.72 1009.28 1009.60 1009.60 1008.78 1008.98 1008.45 1008.71 1008.41 1009.71 1010.16 1009.12 1007.87 1007.72 1007.49 1007.27 1007.45 1008.03 1008.67 1009.44 1010.72
997.14 998.63 1000.05 1001.33 1002.31 1003.46 1004.74 1005.84 1006.68 1007.84 1005.89 1005.82 1005.44 1004.41 1003.97 1004.04 1004.33 1004.26 1004.81 1005.00 1004.96 1005.48 1005.51 1007.15 1008.34 1008.54 1008.47 1008.74 1008.16 1007.78 1007.68 1007.65 1008.19 1009.05 1008.14 1007.91 1007.89 1007.85 1007.89 1007.80 1008.20 1008.86 1009.56 1010.80
998.16 999.27 1000.34 1001.21 1002.25 1003.60 1004.86 1005.63 1006.08 1006.78 1005.05 1006.19 1004.91 1003.52 1003.44 1002.73 1003.12 1003.64 1003.77 1003.91 1004.40 1004.88 1005.71 1006.56 1007.21 1007.81 1007.43 1007.60 1006.76 1006.90 1006.61 1007.12 1007.73 1008.08 1007.97 1008.21 1008.17 1008.27 1008.32 1008.60 1008.98 1009.72 1010.74 1011.60
998.80 999.75 1000.70 1001.34 1002.37 1003.71 1004.80 1005.19 1005.35 1005.10 1004.88 1005.58 1005.07 1003.84 1002.55 1002.27 1002.41 1003.10 1003.47 1003.81 1004.47 1005.12 1006.08 1006.60 1006.71 1006.68 1007.15 1007.43 1006.91 1006.37 1005.76 1005.94 1006.66 1006.03 1005.54 1006.17 1006.87 1007.82 1008.89 1009.27 1009.87 1010.49 1011.14 1012.82
999.23 1000.22 1001.09 1002.00 1002.86 1003.98 1004.75 1005.32 1005.84 1005.26 1005.48 1005.68 1005.52 1003.61 1002.47 1001.82 1001.89 1002.30 1002.85 1003.30 1003.97 1004.66 1005.13 1005.88 1005.79 1005.42 1006.05 1006.71 1006.31 1004.78 1004.31 1004.31 1004.53 1004.67 1005.51 1006.70 1007.35 1008.27 1009.09 1010.14 1011.02 1011.56 1012.18 1013.11
999.75 1000.71 1001.61 1002.35 1003.15 1004.12 1004.29 1004.68 1004.44 1004.86 1005.58 1005.97 1005.63 1004.03 1002.28 1001.89 1002.04 1002.36 1002.78 1003.04 1003.69 1004.15 1004.97 1005.37 1005.55 1005.54 1005.69 1006.59 1005.57 1004.29 1004.56 1004.72 1005.18 1005.89 1006.09 1008.10 1008.42 1008.97 1009.79 1010.73 1011.87 1012.62 1013.55 1014.37
1000.24 1001.18 1002.04 1002.84 1003.65 1003.99 1004.18 1003.83 1003.79 1004.61 1006.14 1006.97 1005.66 1004.03 1002.76 1002.11 1002.37 1002.56 1002.75 1003.31 1003.82 1004.43 1005.10 1005.54 1005.66 1006.13 1006.32 1005.75 1004.48 1004.42 1005.01 1005.40 1005.97 1006.91 1006.70 1006.70 1008.23 1009.55 1010.67 1011.54 1012.48 1013.52 1014.50 1015.31
1000.76 1001.75 1002.67 1003.49 1004.02 1004.63 1004.19 1003.67 1004.05 1004.52 1005.24 1005.59 1005.12 1004.25 1003.16 1002.46 1002.76 1002.40 1003.24 1003.28 1004.38 1004.80 1005.12 1005.53 1005.45 1006.15 1005.13 1004.05 1004.07 1004.45 1005.10 1005.44 1006.06 1007.67 1008.15 1008.75 1009.21 1010.28 1011.28 1012.05 1013.12 1013.81 1015.05 1015.91
1001.04 1002.34 1002.65 1002.94 1002.99 1003.15 1003.18 1004.36 1004.63 1004.63 1004.51 1005.34 1004.60 1003.98 1003.44 1002.74 1003.50 1003.66 1003.91 1003.76 1004.56 1004.94 1005.26 1005.31 1005.79 1005.18 1004.51 1004.04 1004.51 1005.33 1005.85 1006.12 1006.71 1007.83 1009.26 1009.73 1010.38 1010.89 1011.84 1012.67 1013.59 1014.31 1015.17 1016.25
1000.91 1001.40 1001.87 1002.01 1002.28 1002.95 1003.81 1004.27 1004.32 1004.43 1004.76 1004.44 1003.88 1003.78 1003.71 1003.59 1003.69 1004.18 1004.71 1004.28 1004.45 1004.91 1005.23 1005.01 1005.80 1005.44 1005.04 1005.11 1005.30 1005.85 1006.51 1006.84 1007.22 1007.62 1008.48 1009.19 1009.70 1010.55 1011.88 1013.35 1014.32 1015.17 1016.04 1017.05
1000.57 1000.57 1001.13 1002.04 1002.34 1002.82 1003.28 1003.39 1003.78 1003.66 1003.73 1003.60 1003.57 1003.48 1003.52 1003.81 1003.98 1004.37 1005.10 1004.40 1004.48 1004.68 1004.69 1005.27 1005.66 1005.80 1006.01 1006.71 1006.23 1006.67 1006.72 1006.82 1007.82 1008.34 1008.93 1009.89 1010.73 1011.56 1012.57 1013.68 1014.69 1015.65 1016.69 1017.84
1001.06 1000.87 1001.82 1002.07 1002.94 1003.04 1003.24 1003.41 1003.52 1003.89 1004.02 1003.68 1003.66 1003.89 1003.89 1004.37 1004.26 1004.84 1004.87 1004.52 1004.76 1005.09 1005.26 1005.46 1006.12 1005.65 1006.35 1006.86 1007.38 1007.73 1007.77 1008.34 1008.95 1009.55 1010.18 1010.92 1011.88 1012.85 1013.46 1014.62 1015.88 1016.66 1017.57 1018.71
1001.94 1002.04 1003.01 1003.42 1003.90 1004.14 1004.23 1004.28 1004.23 1004.45 1004.21 1004.06 1003.85 1003.95 1004.21 1004.68 1005.12 1005.50 1005.60 1005.81 1005.68 1006.15 1006.58 1007.06 1007.19 1007.81 1007.75 1007.77 1008.04 1008.00 1008.88 1009.62 1010.10 1010.69 1011.45 1012.17 1012.94 1014.05 1014.93 1015.70 1016.53 1017.39 1018.58 1019.70
1003.14 1003.36 1004.30 1004.72 1004.99 1005.03 1004.99 1004.70 1004.62 1004.78 1004.64 1004.45 1004.10 1004.33 1004.64 1005.35 1005.96 1006.41 1006.50 1006.69 1007.18 1007.84 1008.31 1008.34 1008.27 1008.27 1008.40 1008.75 1009.16 1009.56 1010.09 1010.75 1011.38 1011.95 1012.41 1013.46 1014.29 1015.05 1016.15 1017.11 1017.70 1018.34 1019.31 1020.35
1004.60 1005.89 1006.10 1006.10 1005.84 1005.98 1005.73 1005.68 1005.60 1005.36 1005.02 1004.69 1004.74 1005.53 1006.11 1006.87 1007.12 1007.54 1008.32 1008.46 1009.52 1009.94 1009.90 1009.81 1009.71 1009.64 1009.88 1010.25 1010.72 1011.10 1011.39 1011.99 1012.63 1013.22 1013.83 1014.72 1015.46 1016.21 1017.21 1018.21 1018.96 1019.62 1020.20 1021.09
1006.93 1008.10 1008.30 1008.03 1008.16 1008.39 1008.15 1007.63 1007.09 1006.40 1006.06 1006.48 1006.59 1007.75 1008.84 1008.77 1009.39 1010.77 1011.49 1012.08 1011.92 1011.49 1011.01 1010.83 1010.84 1010.89 1011.13 1011.18 1011.67 1012.24 1012.72 1013.20 1013.79 1014.31 1015.31 1016.04 1016.77 1017.38 1018.16 1019.07 1020.06 1020.56 1021.41 1022.04
Thickness
5416 5412 5413 5421 5431 5437 5440 5454 5461 5490 5490 5485 5513 5536 5544 5557 5577 5584 5587 5595 5600 5615 5620 5617 5615 5621 5631 5636 5630 5618 5621 5606 5594 5612 5628 5631 5625 5617 5610 5583 5593 5577 5567 5596
5415 5410 5409 5409 5418 5427 5431 5447 5464 5471 5486 5486 5518 5534 5542 5548 5566 5571 5579 5585 5596 5607 5617 5614 5616 5621 5638 5632 5629 5619 5617 5599 5586 5597 5610 5620 5620 5620 5615 5599 5585 5581 5563 5595
5414 5410 5406 5404 5402 5413 5421 5429 5434 5458 5465 5522 5523 5530 5541 5542 5559 5563 5572 5579 5588 5597 5606 5615 5618 5622 5630 5629 5630 5627 5625 5602 5601 5595 5608 5613 5608 5616 5612 5606 5576 5587 5584 5609
5412 5408 5403 5400 5399 5401 5406 5414 5437 5480 5479 5495 5525 5529 5539 5541 5550 5561 5565 5569 5576 5585 5590 5603 5610 5620 5622 5625 5621 5620 5618 5602 5605 5613 5619 5616 5617 5615 5605 5607 5606 5595 5610 5599
5411 5407 5401 5398 5395 5390 5390 5411 5437 5467 5500 5511 5499 5517 5537 5543 5547 5555 5560 5564 5577 5578 5579 5598 5607 5611 5611 5618 5615 5612 5611 5603 5610 5606 5609 5610 5611 5614 5604 5607 5609 5605 5608 5606
5409 5405 5401 5396 5392 5382 5388 5403 5434 5457 5496 5491 5492 5531 5542 5540 5547 5554 5563 5571 5575 5574 5590 5601 5608 5608 5611 5612 5609 5609 5606 5596 5585 5592 5590 5596 5578 5604 5608 5611 5612 5613 5598 5612
5406 5403 5401 5396 5396 5400 5404 5410 5425 5447 5465 5487 5521 5523 5530 5536 5552 5551 5562 5569 5566 5579 5594 5594 5600 5599 5603 5605 5607 5604 5596 5592 5571 5559 5562 5562 5610 5615 5618 5609 5611 5611 5608 5610
5403 5404 5401 5398 5393 5386 5384 5400 5411 5440 5451 5488 5507 5513 5518 5520 5535 5541 5552 5565 5570 5571 5574 5568 5579 5569 5590 5591 5590 5599 5599 5584 5561 5563 5560 5583 5607 5608 5605 5604 5607 5608 5601 5593
5401 5400 5398 5392 5387 5385 5380 5386 5401 5424 5448 5476 5502 5504 5515 5517 5528 5525 5545 5554 5560 5557 5548 5546 5559 5555 5579 5579 5589 5589 5590 5581 5579 5536 5555 5557 5595 5613 5612 5611 5590 5604 5597 5587
5398 5397 5393 5389 5385 5380 5374 5378 5389 5406 5435 5471 5489 5504 5512 5514 5522 5527 5534 5547 5545 5550 5510 5520 5547 5557 5573 5569 5577 5573 5559 5552 5554 5513 5538 5567 5601 5609 5607 5582 5593 5601 5597 5588
5396 5393 5388 5384 5381 5378 5375 5374 5376 5394 5425 5453 5475 5485 5505 5514 5526 5519 5530 5524 5534 5521 5530 5536 5542 5524 5561 5567 5581 5581 5582 5561 5537 5525 5527 5569 5605 5600 5590 5600 5603 5597 5590 5583
5389 5386 5382 5379 5377 5375 5370 5367 5372 5382 5412 5439 5457 5475 5490 5504 5521 5524 5524 5545 5549 5551 5541 5527 5521 5538 5522 5566 5567 5582 5582 5589 5575 5577 5583 5601 5600 5605 5606 5599 5596 5591 5585 5573
5382 5379 5376 5375 5375 5373 5369 5366 5370 5372 5412 5432 5450 5470 5489 5497 5509 5524 5525 5534 5551 5550 5555 5545 5545 5553 5551 5555 5563 5581 5586 5586 5582 5582 5593 5595 5594 5591 5593 5595 5593 5583 5577 5567
5374 5374 5374 5377 5376 5371 5366 5368 5375 5381 5413 5416 5441 5473 5489 5506 5513 5524 5534 5545 5544 5546 5545 5541 5538 5549 5563 5553 5580 5582 5585 5583 5575 5574 5583 5585 5583 5578 5579 5575 5572 5568 5560 5554
5370 5371 5372 5375 5373 5367 5364 5374 5385 5394 5409 5421 5442 5467 5493 5507 5516 5525 5531 5540 5539 5536 5535 5524 5546 5554 5553 5546 5561 5554 5583 5586 5579 5588 5601 5599 5597 5575 5567 5568 5562 5558 5551 5536
5367 5368 5369 5369 5367 5363 5362 5365 5371 5390 5402 5420 5434 5470 5494 5514 5520 5528 5531 5539 5535 5535 5540 5535 5552 5560 5564 5555 5558 5590 5594 5593 5598 5605 5593 5574 5569 5563 5560 5551 5544 5541 5536 5528
5365 5365 5365 5365 5364 5362 5365 5371 5386 5395 5403 5418 5433 5453 5495 5514 5520 5522 5528 5532 5532 5536 5536 5534 5549 5554 5551 5526 5560 5591 5581 5579 5575 5568 5571 5554 5558 5553 5544 5537 5528 5523 5514 5507
5363 5362 5361 5361 5361 5364 5369 5387 5400 5404 5406 5412 5436 5466 5491 5512 5520 5526 5525 5522 5526 5525 5525 5519 5530 5533 5523 5549 5574 5568 5562 5562 5559 5550 5555 5563 5545 5535 5526 5520 5513 5503 5494 5486
5358 5357 5357 5358 5360 5361 5374 5393 5400 5410 5418 5426 5440 5470 5497 5507 5508 5514 5514 5518 5509 5516 5510 5517 5533 5517 5551 5572 5565 5558 5556 5559 5548 5533 5530 5529 5526 5518 5511 5506 5496 5489 5477 5469
5359 5356 5362 5365 5373 5383 5398 5403 5410 5419 5430 5438 5460 5472 5492 5504 5486 5497 5503 5505 5507 5515 5511 5516 5513 5530 5536 5542 5542 5538 5534 5535 5532 5520 5510 5508 5505 5503 5497 5490 5481 5474 5467 5456
5374 5373 5373 5390 5398 5401 5409 5411 5425 5429 5435 5449 5467 5477 5489 5493 5497 5494 5487 5499 5497 5514 5506 5521 5515 5531 5525 5524 5526 5524 5521 5520 5519 5518 5512 5509 5503 5496 5483 5471 5463 5454 5447 5437
5393 5400 5409 5409 5412 5418 5428 5437 5437 5452 5466 5463 5473 5480 5488 5483 5489 5488 5478 5492 5493 5516 5501 5510 5518 5508 5504 5502 5509 5508 5510 5512 5506 5504 5499 5491 5485 5478 5469 5458 5448 5439 5427 5414
5410 5420 5414 5428 5419 5441 5451 5461 5464 5466 5455 5465 5469 5478 5477 5476 5482 5474 5477 5492 5495 5484 5500 5508 5492 5498 5494 5492 5489 5488 5492 5490 5487 5483 5478 5472 5463 5453 5448 5436 5423 5416 5406 5394
5419 5427 5428 5432 5433 5433 5438 5447 5454 5448 5454 5462 5469 5472 5475 5466 5472 5466 5484 5473 5479 5480 5481 5469 5473 5471 5475 5478 5478 5481 5474 5468 5466 5460 5454 5447 5441 5431 5422 5414 5406 5397 5385 5372
5426 5431 5434 5432 5429 5430 5433 5439 5446 5446 5450 5457 5470 5471 5472 5468 5467 5462 5467 5476 5468 5461 5458 5460 5459 5463 5465 5463 5460 5457 5453 5448 5443 5439 5434 5423 5416 5409 5399 5390 5384 5376 5365 5352
5423 5415 5421 5423 5433 5432 5437 5438 5444 5446 5451 5458 5462 5462 5468 5462 5459 5464 5455 5464 5446 5440 5437 5437 5439 5442 5441 5439 5436 5435 5433 5428 5422 5416 5410 5401 5393 5386 5377 5367 5358 5349 5341 5330
5410 5405 5400 5409 5415 5415 5419 5424 5430 5436 5448 5453 5456 5445 5433 5440 5442 5430 5419 5415 5415 5415 5422 5423 5424 5425 5424 5424 5420 5415 5410 5406 5400 5395 5385 5377 5371 5364 5357 5347 5335 5328 5317 5307